Home > Weather > Davenport > Past weeks

Flag for U.S.A. Weather for the Past 2 Weeks in Davenport, Iowa, U.S.A.

Now
29 °F

Overcast.


Feels Like: 23 °F
Forecast: 25 / 39 °F
Wind: 6 mph from Southwest

Location: Davenport Municipal Airport

Current Time: Feb 5, 2016 at 7:01:44 PM

Latest Report: Feb 5, 2016 at 5:52 PM


Visibility: 10 mi

Pressure: 30.39 "Hg

Humidity: 69%

Dew point: 20 °F

Location of DavenportLocation

Historic Weather in Davenport — Graph

°F

Davenport Temperature Yesterday

Maximum temperature yesterday: 34 °F (at 3:52 PM)
Minimum temperature yesterday: 16 °F (at 3:52 AM)
Average temperature yesterday: 25 °F

High & Low Weather Summary for the Past Weeks

 TemperatureHumidityPressure
High45 °F (Jan 30, 1:52 PM)100% (Feb 1, 9:52 AM)30.45 "Hg (Feb 1, 9:52 AM)
Low10 °F (Jan 23, 6:52 AM)49% (Jan 29, 2:52 PM)29.47 "Hg (Feb 3, 4:00 AM)
Average30 °F80%29.98 "Hg
* Reported Jan 21 4:52 PM — Feb 5 4:52 PM, Davenport, Weather by CustomWeather, © 2016

Note: Actual official high and low records may vary slightly from our data, if they occured in-between our weather recording intervals... More about our weather records

Advertising

Davenport Weather History for the Previous 24 Hours

 ConditionsComfort  
Time TempWeatherWind HumidityBarometerVisibility
4:52 PM
Fri, Feb 5
29 °FOvercast.No wind64%30.37 "Hg10 mi
3:52 PM29 °FPartly sunny.No wind66%30.39 "Hg10 mi
2:52 PM30 °FSunny.6 mph66%30.39 "Hg10 mi
1:52 PM30 °FSunny.8 mph66%30.41 "Hg10 mi
12:52 PM30 °FSunny.5 mph66%30.41 "Hg10 mi
11:52 AM29 °FSunny.No wind69%30.42 "Hg10 mi
10:52 AM28 °FSunny.6 mph72%30.45 "Hg9 mi
9:52 AM27 °FSunny.5 mph69%30.44 "Hg10 mi
8:52 AM25 °FPassing clouds.7 mph75%30.42 "Hg8 mi
7:52 AM24 °FPartly sunny.5 mph77%30.41 "Hg8 mi
6:52 AM25 °FOvercast.9 mph75%30.41 "Hg10 mi
5:52 AM25 °FOvercast.10 mph75%30.38 "Hg10 mi
4:52 AM25 °FOvercast.13 mph72%30.37 "Hg10 mi
3:52 AM26 °FOvercast.12 mph74%30.35 "Hg10 mi
2:52 AM26 °FOvercast.16 mph71%30.34 "Hg10 mi
1:52 AM27 °FMostly cloudy.14 mph81%30.32 "Hg10 mi
12:52 AM27 °FMostly cloudy.12 mph81%30.31 "Hg10 mi
11:52 PM
Thu, Feb 4
27 °FOvercast.13 mph78%30.30 "Hg10 mi
10:52 PM26 °FPassing clouds.13 mph81%30.28 "Hg8 mi
9:52 PM30 °FMostly cloudy.10 mph82%30.26 "Hg10 mi
8:52 PM31 °FMostly cloudy.9 mph69%30.24 "Hg10 mi
7:52 PM30 °FPartly cloudy.8 mph72%30.24 "Hg10 mi
Weather by CustomWeather, © 2016

See weather overviewHow to use our weather pages